Weather History for Branson, MO

Change the Weather History Date:

Saturday, January 5, 2013

  Actual Average (KHRO) Record (KHRO)
Temperature  
Mean Temperature 36 °F 36 °F  
Max Temperature 41 °F 46 °F 75 °F (1956)
Min Temperature 32 °F 26 °F -8 °F (1942)
Degree Days  
Heating Degree Days 28 29  
Month to date heating degree days 145  
Since 1 July heating degree days 1744  
Cooling Degree Days 0 0  
Month to date cooling degree days 0  
Year to date cooling degree days 0  
Moisture  
Dew Point 26 °F    
Average Humidity 68    
Maximum Humidity 87    
Minimum Humidity 52    
Precipitation  
Precipitation 0.00 in 0.09 in 1.61 in (1929)
Month to date precipitation 0.42  
Year to date precipitation 0.42  
Snow  
Snow 0.00 in 0.10 in 2.00 in (1910)
Month to date snowfall 0.5  
Since 1 July snowfall 2.3  
Snow Depth -    
Sea Level Pressure  
Sea Level Pressure 30.25 in    
Wind  
Wind Speed 2 mph (SW)    
Max Wind Speed 9 mph    
Max Gust Speed 17 mph    
Visibility 10 miles    
Events      
T = Trace of Precipitation, MM = Missing Value Source: NWS Daily Summary

Daily Weather History Graph

Daily Weather History Graph

Search for Another Location

Airport:

Trip Planner

Search our weather history database for the weather conditions in past years. The results will help you decide how hot, cold, wet, or windy it might be!

Date:

Astronomy

Jan. 05, 2013 Rise Set
Actual Time 7:25 AM CST 5:11 PM CST
Civil Twilight 6:56 AM CST 5:40 PM CST
Nautical Twilight 6:24 AM CST 6:12 PM CST
Astronomical Twilight 5:53 AM CST 6:43 PM CST
Moon 12:38 AM CST (1/5) 11:56 AM CST (1/5)
Length of Visible Light 10h 43m
Length of Day
9h 46m
Last Quarter, 44% of the Moon is Illuminated
Jan 5
Last Quarter
Jan 11
New
Jan 18
First Quarter
Jan 26
Full
Feb 3
Last Quarter

Hourly Weather History & Observations

Time (CST) Temp. Windchill Dew Point Humidity Pressure Visibility Wind Dir Wind Speed Gust Speed Precip Events Conditions
12:15 AM 32.0 °F - 21.2 °F 64% 30.31 in 10.0 mi Calm Calm - N/A   Clear
12:35 AM 32.0 °F - 21.2 °F 64% 30.32 in 10.0 mi Calm Calm - N/A   Clear
12:55 AM 32.0 °F - 21.2 °F 64% 30.31 in 10.0 mi Calm Calm - N/A   Clear
1:15 AM 32.0 °F - 21.2 °F 64% 30.31 in 10.0 mi Calm Calm - N/A   Clear
1:35 AM 32.0 °F - 21.2 °F 64% 30.30 in 10.0 mi Calm Calm - N/A   Clear
1:55 AM 32.0 °F - 19.4 °F 60% 30.30 in 10.0 mi Calm Calm - N/A   Clear
2:15 AM 32.0 °F - 19.4 °F 60% 30.30 in 10.0 mi Calm Calm - N/A   Clear
2:35 AM 32.0 °F - 19.4 °F 60% 30.30 in 10.0 mi Calm Calm - N/A   Scattered Clouds
2:55 AM 32.0 °F - 21.2 °F 64% 30.31 in 10.0 mi Calm Calm - N/A   Scattered Clouds
3:15 AM 32.0 °F - 19.4 °F 60% 30.30 in 10.0 mi Calm Calm - N/A   Mostly Cloudy
3:35 AM 32.0 °F - 19.4 °F 60% 30.30 in 10.0 mi Calm Calm - N/A   Overcast
3:55 AM 32.0 °F - 19.4 °F 60% 30.30 in 10.0 mi Calm Calm - N/A   Overcast
4:35 AM 32.0 °F - 21.2 °F 64% 30.29 in 10.0 mi Calm Calm - N/A   Overcast
4:55 AM 33.8 °F - 19.4 °F 56% 30.29 in 10.0 mi Calm Calm - N/A   Overcast
5:15 AM 33.8 °F - 21.2 °F 60% 30.30 in 10.0 mi Calm Calm - N/A   Overcast
5:35 AM 35.6 °F - 19.4 °F 52% 30.30 in 10.0 mi Calm Calm - N/A   Overcast
6:50 AM 32.0 °F - 23.0 °F 69% 30.30 in 10.0 mi Calm Calm - N/A   Overcast
8:51 AM 35.6 °F - 23.0 °F 60% 30.30 in 10.0 mi Calm Calm - N/A   Overcast
9:50 AM 39.2 °F - 23.0 °F 52% 30.30 in 10.0 mi Calm Calm - N/A   Overcast
10:50 AM 39.2 °F 34.2 °F 24.8 °F 56% 30.28 in 10.0 mi South 6.9 mph - N/A   Overcast
11:48 AM 41.0 °F 35.2 °F 26.6 °F 57% 30.25 in 10.0 mi SSW 9.2 mph 17.3 mph N/A   Overcast
12:52 PM 41.0 °F 35.2 °F 28.4 °F 61% 30.20 in 10.0 mi SSW 9.2 mph - N/A   Overcast
1:51 PM 41.0 °F 35.2 °F 28.4 °F 61% 30.18 in 10.0 mi SW 9.2 mph - N/A   Overcast
3:53 PM 41.0 °F 35.8 °F 30.2 °F 65% 30.19 in 10.0 mi SW 8.1 mph - N/A   Overcast
5:47 PM 39.2 °F 33.0 °F 30.2 °F 70% 30.19 in 10.0 mi SW 9.2 mph - N/A   Overcast
6:53 PM 39.2 °F 34.2 °F 30.2 °F 70% 30.21 in 10.0 mi SW 6.9 mph - N/A   Overcast
7:48 PM 39.2 °F 33.6 °F 30.2 °F 70% 30.22 in 10.0 mi SW 8.1 mph - N/A   Overcast
8:15 PM 37.4 °F 32.8 °F 30.2 °F 75% 30.21 in 10.0 mi SW 5.8 mph - N/A   Overcast
8:35 PM 37.4 °F 33.8 °F 30.2 °F 75% 30.20 in 10.0 mi SW 4.6 mph - N/A   Mostly Cloudy
8:50 PM 37.4 °F 32.1 °F 30.2 °F 75% 30.20 in 10.0 mi SW 6.9 mph - N/A   Partly Cloudy
8:55 PM 37.4 °F 32.8 °F 30.2 °F 75% 30.20 in 10.0 mi SW 5.8 mph - N/A   Partly Cloudy
9:15 PM 37.4 °F 32.1 °F 30.2 °F 75% 30.21 in 10.0 mi SW 6.9 mph - N/A   Clear
9:35 PM 37.4 °F 32.8 °F 30.2 °F 75% 30.21 in 10.0 mi SW 5.8 mph - N/A   Clear
9:55 PM 37.4 °F 32.8 °F 32.0 °F 81% 30.21 in 10.0 mi WSW 5.8 mph - N/A   Clear
10:15 PM 37.4 °F 32.8 °F 32.0 °F 81% 30.22 in 10.0 mi WSW 5.8 mph - N/A   Clear
10:35 PM 37.4 °F 32.8 °F 32.0 °F 81% 30.21 in 10.0 mi WSW 5.8 mph - N/A   Clear
10:55 PM 35.6 °F 29.2 °F 32.0 °F 87% 30.22 in 10.0 mi WSW 8.1 mph - N/A   Clear
11:15 PM 35.6 °F 29.2 °F 32.0 °F 87% 30.21 in 10.0 mi WSW 8.1 mph - N/A   Clear
11:35 PM 35.6 °F 32.8 °F 32.0 °F 87% 30.21 in 10.0 mi SW 3.5 mph - N/A   Partly Cloudy
11:55 PM 35.6 °F 30.7 °F 32.0 °F 87% 30.21 in 10.0 mi SW 5.8 mph - N/A   Partly Cloudy